Regional Weather Roundup
Issued by NWS

Home | Current Version | Previous Version | Graphics & Text | Print | Product List | Glossary Off
Versions: 1 2 3 4 5 6 7 8 9 10 11 12 13 14 15 16 17 18 19 20 21 22 23 24 25 26 27 28 29 30 31 32 33 34 35 36 37 38 39 40 41 42 43 44 45 46 47 48 49 50

000
ASUS43 KLSX 251707
RWRMO

WEATHER SUMMARY FOR MISSOURI
NATIONAL WEATHER SERVICE SPRINGFIELD MO
1200 PM CDT SUN SEP 25 2016

NOTE: "FAIR" INDICATES FEW OR NO CLOUDS BELOW 12,000 FEET WITH NO
       SIGNIFICANT WEATHER AND/OR OBSTRUCTIONS TO VISIBILITY.
       CURRENT SKY AND/OR WEATHER CONDITIONS ARE NOT AVAILABLE FOR
       CHILLICOTHE AND FARMINGTON.

MOZ001>031-035>038-043-044-053-054-251800-
...NORTHERN AND WESTERN MISSOURI...

CITY           SKY/WX    TMP DP  RH WIND       PRES   REMARKS
KANSAS CTY INT DRIZZLE   60  53  77 NW12      30.16R
KANSAS C DTWN  CLOUDY    65  59  81 N12       30.14R
LEE`S SUMMIT   CLOUDY    63  59  87 N16       30.14R
ST JOSEPH      CLOUDY    62  57  83 N9        30.15R
CHILLICOTHE      N/A     69  62  78 NW9       30.12R
KIRKSVILLE     CLOUDY    74  66  76 W9        30.09R

$$
MOZ066>068-077>081-088>096-101>105-251800-
...SOUTHWEST MISSOURI...

CITY           SKY/WX    TMP DP  RH WIND       PRES   REMARKS
SPRINGFIELD    MOSUNNY   86  67  52 SW13      30.09F
JOPLIN         PTSUNNY   77  69  76 NE6       30.12F
BRANSON        MOSUNNY   82  68  61 SW6       30.12F

$$
MOZ032>034-039>042-045>050-055>058-069>072-251800-
...CENTRAL MISSOURI...

CITY           SKY/WX    TMP DP  RH WIND       PRES   REMARKS
COLUMBIA       SUNNY     82  67  60 W13       30.09S
JEFFERSON CITY MOSUNNY   84  66  54 VRB7      30.07F
ROLLA          SUNNY     83  68  60 W10       30.09S
SEDALIA        CLOUDY    76  66  71 W12       30.13S
WHITEMAN AFB   PTSUNNY   68  68 100 NW7       30.11F
OSAGE BEACH    PTSUNNY   81  71  71 CALM      30.09F

$$
MOZ051-052-059>065-251800-
...EAST CENTRAL MISSOURI...

CITY           SKY/WX    TMP DP  RH WIND       PRES   REMARKS
ST LOUIS INTL  PTSUNNY   88  67  49 SW9       30.06F HX  91
SPIRIT OF STL  PTSUNNY   87  70  56 SW15      30.04F HX  92
ST CHARLES     MOSUNNY   88  68  51 W12       30.03F HX  91

$$
MOZ072>076-082>087-097>100-106>115-251800-
...SOUTH CENTRAL AND SOUTHEAST MISSOURI...

CITY           SKY/WX    TMP DP  RH WIND       PRES   REMARKS
CAPE GIRARDEAU MOSUNNY   84  68  58 VRB5      30.07F
FARMINGTON     MOSUNNY   85  71  63 VRB6      30.10S HX  90
WEST PLAINS    MOSUNNY   83  68  60 VRB7      30.13S

$$



USA.gov is the U.S. government's official web portal to all federal, state and local government web resources and services.